EW9060 Weather Reports


time (UTC)temp
C
wind
direction
speed
KPH
gust
KPH
rain 1hr
cm
rain 24hr
cm
rain mn
cm
humidity
%
barometer
mb
20260902093008 16 166 3.2 17.7 0.00 0.00 0.00 79 1017.4
20260902091508 16 144 4.8 12.9 0.00 0.00 0.00 79 1017.3
20260902090006 16 144 3.2 9.7 0.00 0.00 0.00 79 1017.3
20260902084505 16 156 3.2 11.3 0.00 0.00 0.00 79 1017.2
20260902083003 16 138 6.4 14.5 0.00 0.00 0.00 79 1017.2
20260902081502 16 134 3.2 11.3 0.00 0.00 0.00 79 1017.1
20260902080113 16 177 3.2 11.3 0.00 0.00 0.00 79 1017.0
20260902074558 17 169 3.2 11.3 0.00 0.00 0.00 78 1016.9
20260902073056 17 160 3.2 17.7 0.00 0.00 0.00 78 1016.9
20260902071555 17 165 1.6 11.3 0.00 0.00 0.00 77 1016.9
20260902070053 17 192 4.8 17.7 0.00 0.00 0.00 77 1016.8
20260902064652 17 148 1.6 14.5 0.00 0.00 0.00 76 1016.7
20260902063052 17 175 3.2 14.5 0.00 0.00 0.00 76 1016.5
20260902061556 17 264 1.6 12.9 0.00 0.00 0.00 75 1016.8
20260902060050 17 225 3.2 14.5 0.00 0.00 0.00 75 1016.8
20260902054550 17 212 3.2 14.5 0.00 0.00 0.00 74 1016.9
20260902053055 17 229 4.8 14.5 0.00 0.00 0.00 72 1016.9
20260902051551 17 171 4.8 12.9 0.00 0.00 0.00 70 1016.8
20260902050049 17 207 0.0 14.5 0.00 0.00 0.00 68 1016.7
20260902044548 18 201 4.8 16.1 0.00 0.00 0.00 66 1016.8
20260902043050 18 219 3.2 12.9 0.00 0.00 0.00 65 1016.7
20260902041552 18 248 3.2 14.5 0.00 0.00 0.00 64 1016.5
20260902040047 18 254 3.2 16.1 0.00 0.00 0.00 62 1016.3
20260902034557 19 269 4.8 16.1 0.00 0.00 0.00 61 1016.1
20260902033059 20 191 1.6 12.9 0.00 0.00 0.00 59 1015.8
20260902031550 20 196 1.6 11.3 0.00 0.00 0.00 58 1015.6
20260902030044 20 220 3.2 16.1 0.00 0.00 0.00 56 1015.4
20260902024546 21 192 4.8 16.1 0.00 0.00 0.00 55 1015.2
20260902023043 21 173 6.4 19.3 0.00 0.00 0.00 53 1015.1
20260902021542 21 156 1.6 11.3 0.00 0.00 0.00 52 1015.0
20260902020042 22 192 3.2 11.3 0.00 0.00 0.00 50 1014.9
20260902014542 22 282 4.8 16.1 0.00 0.00 0.00 48 1014.9
20260902013040 22 269 3.2 17.7 0.00 0.00 0.00 46 1014.8
20260902011539 23 190 3.2 14.5 0.00 0.00 0.00 44 1014.6
20260902010039 24 194 4.8 17.7 0.00 0.00 0.00 42 1014.7
20260902004538 24 175 4.8 20.9 0.00 0.00 0.00 42 1014.6
20260902003037 25 178 11.3 27.4 0.00 0.00 0.00 41 1014.6
20260902001537 25 260 1.6 19.3 0.00 0.00 0.00 41 1014.6
20260902000039 25 163 4.8 19.3 0.00 0.00 0.00 40 1014.7
20260901234538 25 195 6.4 20.9 0.00 0.00 0.00 39 1014.8
20260901233042 25 259 6.4 17.7 0.00 0.00 0.00 39 1014.7
20260901231533 26 232 4.8 17.7 0.00 0.00 0.00 38 1014.9
20260901230034 26 175 4.8 14.5 0.00 0.00 0.00 40 1015.0
20260901224536 26 158 4.8 16.1 0.00 0.00 0.00 40 1015.0
20260901223030 26 254 8.0 22.5 0.00 0.00 0.00 39 1015.1
20260901221527 25 207 4.8 16.1 0.00 0.00 0.00 39 1015.3
20260901220026 25 167 4.8 17.7 0.00 0.00 0.00 40 1015.4
20260901214525 25 186 4.8 14.5 0.00 0.00 0.00 41 1015.6
20260901213027 25 146 6.4 20.9 0.00 0.00 0.00 42 1015.7
20260901211526 25 227 3.2 19.3 0.00 0.00 0.00 43 1015.7
20260901210021 25 210 8.0 24.1 0.00 0.00 0.00 44 1015.8
20260901204519 25 173 6.4 19.3 0.00 0.00 0.00 43 1015.8
20260901203020 25 160 6.4 16.1 0.00 0.00 0.00 43 1016.1
20260901201514 23 175 6.4 16.1 0.00 0.00 0.00 47 1016.3
20260901200013 23 237 8.0 16.1 0.00 0.00 0.00 46 1016.3
20260901194514 23 169 4.8 14.5 0.00 0.00 0.00 48 1016.3
20260901193008 23 280 4.8 17.7 0.00 0.00 0.00 48 1016.5
20260901191507 22 203 3.2 11.3 0.00 0.00 0.00 49 1016.7
20260901190010 22 229 4.8 12.9 0.00 0.00 0.00 50 1016.8
20260901184503 22 177 4.8 11.3 0.00 0.00 0.00 50 1016.9
20260901183101 22 126 3.2 11.3 0.00 0.00 0.00 50 1016.9
20260901181602 22 162 3.2 11.3 0.00 0.00 0.00 52 1016.9
20260901180055 21 132 1.6 12.9 0.00 0.00 0.00 54 1016.9
20260901174550 20 154 0.0 14.5 0.00 0.00 0.00 58 1016.9
20260901173057 20 93 3.2 11.3 0.00 0.00 0.00 55 1016.8
20260901171557 20 198 1.6 9.7 0.00 0.00 0.00 61 1016.6
20260901170044 20 217 0.0 11.3 0.00 0.00 0.00 63 1016.6
20260901164540 19 111 0.0 11.3 0.00 0.00 0.00 65 1016.4
20260901163036 18 234 1.6 8.0 0.00 0.00 0.00 68 1016.5
20260901161531 17 217 0.0 11.3 0.00 0.00 0.00 71 1016.5
20260901160030 17 175 3.2 14.5 0.00 0.00 0.00 74 1016.3
20260901154523 16 154 1.6 12.9 0.00 0.00 0.00 76 1016.1
20260901153021 16 150 4.8 16.1 0.00 0.00 0.00 78 1016.0
20260901151529 15 179 1.6 11.3 0.00 0.00 0.00 79 1015.7
20260901150020 15 138 0.0 8.0 0.00 0.00 0.00 81 1015.5
20260901144519 15 134 3.2 11.3 0.00 0.00 0.00 82 1015.4
20260901143012 14 127 3.2 12.9 0.00 0.00 0.00 82 1015.2
20260901141509 14 119 3.2 12.9 0.00 0.00 0.00 83 1015.0
20260901140006 13 162 0.0 14.5 0.00 0.00 0.00 84 1014.7
20260901134504 13 133 1.6 8.0 0.00 0.00 0.00 85 1014.3
20260901133001 14 133 1.6 11.3 0.00 0.00 0.00 84 1014.3
20260901131603 14 155 1.6 12.9 0.00 0.00 0.00 84 1014.2
20260901130058 14 162 1.6 8.0 0.00 0.00 0.00 83 1014.1
20260901124556 14 147 3.2 9.7 0.00 0.00 0.00 83 1013.8
20260901123117 14 160 0.0 8.0 0.00 0.00 0.00 82 1013.7
20260901121605 14 136 0.0 8.0 0.00 0.00 0.00 82 1013.8
20260901120056 15 132 3.2 12.9 0.00 0.00 0.00 81 1013.8
20260901114550 15 187 1.6 9.7 0.00 0.00 0.00 81 1013.7
20260901113056 15 189 3.2 12.9 0.00 0.00 0.00 80 1013.5
20260901111550 15 150 6.4 16.1 0.00 0.00 0.00 80 1013.4
20260901110046 15 135 4.8 14.5 0.00 0.00 0.00 79 1013.4
20260901104555 15 155 6.4 17.7 0.00 0.00 0.00 78 1013.4
20260901103042 15 144 4.8 16.1 0.00 0.00 0.00 78 1013.3
20260901101541 15 164 4.8 14.5 0.00 0.00 0.00 77 1013.2
20260901100055 15 160 4.8 16.1 0.00 0.00 0.00 77 1013.2
20260901094539 15 130 4.8 14.5 0.00 0.00 0.00 78 1013.3